User: anonymous   Login
Location: Songkhla
(7.2000°N, 100.6000°E)
Time: 14:03:23
(UTC+07:00)
Language:

ITUPSAT 1 - Orbit

View from above orbital plane
View from above orbital plane
View from above satellite
View from above satellite

Ground track
Ground track

The orbit data is extracted from the following two-line orbital elements,

1 35935U 09051E   22276.58243068  .00000830  00000-0  19914-3 0  9993
2 35935  98.5576 137.0564 0009227  90.7480 269.4774 14.56085275691649
Epoch (UTC): 03 October 2022 13:58:42
Eccentricity: 0.0009227
inclination: 98.5576°
perigee height: 699 km
apogee height: 712 km
right ascension of ascending node: 137.0564°
argument of perigee: 90.7480°
revolutions per day: 14.56085275
mean anomaly at epoch: 269.4774°
orbit number at epoch: 69164

The dashed part of the orbit path shows where the satellite is in the earth's shadow,  

DLR